Weather History for Oakland, CA

Change the Weather History Date:

Sunday, September 15, 2013

  Actual Average Record
Temperature  
Mean Temperature 67 °F 65 °F  
Max Temperature 73 °F 75 °F 91 °F (1971)
Min Temperature 60 °F 55 °F 47 °F (1955)
Degree Days  
Heating Degree Days 0 2  
Month to date heating degree days 3 28  
Since 1 July heating degree days 90 168  
Cooling Degree Days 2 2  
Month to date cooling degree days 47 30  
Year to date cooling degree days 191 110  
Growing Degree Days 16 (Base 50)    
Moisture  
Dew Point 60 °F    
Average Humidity 83    
Maximum Humidity 100    
Minimum Humidity 66    
Precipitation  
Precipitation 0.00 in 0.01 in 0.00 in (2014)
Month to date precipitation T 0.06  
Year to date precipitation 2.82 13.34  
Since 1 July precipitation T 0.12  
Sea Level Pressure  
Sea Level Pressure 29.85 in    
Wind  
Wind Speed 11 mph (WSW)    
Max Wind Speed 22 mph    
Max Gust Speed 22 mph    
Visibility 10 miles    
Events      
T = Trace of Precipitation, MM = Missing Value Source: NWS Daily Summary

Daily Weather History Graph

Daily Weather History Graph

Search for Another Location

Airport:

Trip Planner

Search our weather history database for the weather conditions in past years. The results will help you decide how hot, cold, wet, or windy it might be!

Date:

Astronomy

Sep. 15, 2013 Rise Set
Actual Time 6:51 AM PDT 7:16 PM PDT
Civil Twilight 6:24 AM PDT 7:42 PM PDT
Nautical Twilight 5:53 AM PDT 8:13 PM PDT
Astronomical Twilight 5:22 AM PDT 8:44 PM PDT
Moon 4:44 PM PDT (9/15) 2:38 AM PDT (9/15)
Length of Visible Light 13h 17m
Length of Day
12h 25m
Waxing Gibbous, 83% of the Moon is Illuminated
Sep 15
Waxing Gibbous
Sep 19
Full
Sep 26
Last Quarter
Oct 4
New
Oct 11
First Quarter

Hourly Weather History & Observations

Time (PDT) Temp. Dew Point Humidity Pressure Visibility Wind Dir Wind Speed Gust Speed Precip Events Conditions
12:53 AM 60.1 °F 59.0 °F 96% 29.81 in 10.0 mi West 13.8 mph - N/A   Overcast
1:53 AM 60.1 °F 59.0 °F 96% 29.81 in 10.0 mi West 11.5 mph - N/A   Overcast
2:53 AM 60.1 °F 59.0 °F 96% 29.81 in 10.0 mi West 15.0 mph - N/A   Overcast
3:53 AM 60.1 °F 59.0 °F 96% 29.81 in 10.0 mi West 15.0 mph - N/A   Overcast
4:53 AM 60.1 °F 57.9 °F 93% 29.82 in 10.0 mi West 13.8 mph - N/A   Overcast
5:53 AM 60.1 °F 59.0 °F 96% 29.83 in 10.0 mi West 15.0 mph - N/A   Overcast
6:53 AM 60.1 °F 59.0 °F 96% 29.84 in 10.0 mi West 9.2 mph 21.9 mph N/A   Mostly Cloudy
7:53 AM 60.1 °F 57.9 °F 93% 29.86 in 10.0 mi West 13.8 mph - N/A   Mostly Cloudy
8:53 AM 61.0 °F 57.9 °F 90% 29.87 in 10.0 mi West 13.8 mph - N/A   Mostly Cloudy
9:12 AM 62.6 °F 57.2 °F 82% 29.87 in 10.0 mi WSW 9.2 mph - N/A   Mostly Cloudy
9:53 AM 64.0 °F 59.0 °F 84% 29.87 in 10.0 mi SW 8.1 mph - N/A   Scattered Clouds
10:53 AM 66.0 °F 57.9 °F 75% 29.88 in 10.0 mi SW 5.8 mph - N/A   Partly Cloudy
11:53 AM 68.0 °F 57.9 °F 70% 29.88 in 10.0 mi South 5.8 mph - N/A   Clear
12:53 PM 69.1 °F 59.0 °F 70% 29.88 in 10.0 mi South 8.1 mph - N/A   Clear
1:53 PM 71.1 °F 59.0 °F 66% 29.87 in 10.0 mi West 5.8 mph - N/A   Clear
2:53 PM 72.0 °F 59.0 °F 64% 29.86 in 10.0 mi WSW 10.4 mph - N/A   Clear
3:53 PM 72.0 °F 59.0 °F 64% 29.85 in 10.0 mi West 6.9 mph - N/A   Clear
4:53 PM 71.1 °F 62.1 °F 73% 29.84 in 10.0 mi West 13.8 mph - N/A   Partly Cloudy
5:53 PM 70.0 °F 62.1 °F 76% 29.84 in 10.0 mi West 16.1 mph - N/A   Partly Cloudy
6:53 PM 68.0 °F 64.0 °F 87% 29.83 in 10.0 mi West 17.3 mph - N/A   Partly Cloudy
7:53 PM 66.0 °F 64.0 °F 93% 29.84 in 10.0 mi West 13.8 mph - N/A   Partly Cloudy
8:53 PM 64.0 °F 64.0 °F 100% 29.86 in 10.0 mi West 12.7 mph - N/A   Partly Cloudy
9:18 PM 64.4 °F 64.4 °F 100% 29.87 in 10.0 mi West 12.7 mph - N/A   Mostly Cloudy
9:53 PM 64.0 °F 64.0 °F 100% 29.86 in 10.0 mi WNW 9.2 mph - N/A   Mostly Cloudy
10:38 PM 64.4 °F 64.4 °F 100% 29.87 in 10.0 mi West 10.4 mph - N/A   Overcast
10:53 PM 64.0 °F 64.0 °F 100% 29.87 in 10.0 mi West 10.4 mph - N/A   Overcast
11:53 PM 64.0 °F 64.0 °F 100% 29.87 in 10.0 mi WSW 9.2 mph - N/A   Overcast